Weather History for Cedar City, UT

Change the Weather History Date:

Wednesday, February 13, 2013

  Actual Average Record
Temperature  
Mean Temperature 26 °F 33 °F  
Max Temperature 43 °F 46 °F 66 °F (1971)
Min Temperature 9 °F 20 °F -10 °F (1949)
Degree Days  
Heating Degree Days 39 32  
Month to date heating degree days 449 433  
Since 1 July heating degree days 4097 4108  
Cooling Degree Days 0 0  
Month to date cooling degree days 0 0  
Year to date cooling degree days 0 0  
Moisture  
Dew Point 17 °F    
Average Humidity 70    
Maximum Humidity 91    
Minimum Humidity 49    
Precipitation  
Precipitation 0.00 in 0.03 in 0.61 in (2008)
Month to date precipitation 0.69 0.42  
Year to date precipitation 1.67 1.28  
Sea Level Pressure  
Sea Level Pressure 30.33 in    
Wind  
Wind Speed 4 mph (NNE)    
Max Wind Speed 12 mph    
Max Gust Speed 14 mph    
Visibility 10 miles    
Events      
T = Trace of Precipitation, MM = Missing Value Source: NWS Daily Summary

Daily Weather History Graph

Daily Weather History Graph

Search for Another Location

Airport:

Trip Planner

Search our weather history database for the weather conditions in past years. The results will help you decide how hot, cold, wet, or windy it might be!

Date:

Astronomy

Feb. 13, 2013 Rise Set
Actual Time 7:23 AM MST 6:09 PM MST
Civil Twilight 6:56 AM MST 6:36 PM MST
Nautical Twilight 6:26 AM MST 7:07 PM MST
Astronomical Twilight 5:55 AM MST 7:37 PM MST
Moon 9:00 AM MST (2/13) 10:10 PM MST (2/13)
Length of Visible Light 11h 39m
Length of Day
10h 45m
Waxing Crescent, 14% of the Moon is Illuminated
Feb 13
Waxing Crescent
Feb 17
First Quarter
Feb 25
Full
Mar 4
Last Quarter
Mar 11
New

Hourly Weather History & Observations

Time (MST) Temp. Windchill Dew Point Humidity Pressure Visibility Wind Dir Wind Speed Gust Speed Precip Events Conditions
12:53 AM 15.1 °F 9.4 °F 10.0 °F 80% 30.38 in 10.0 mi East 3.5 mph - N/A   Clear
1:53 AM 10.0 °F - 7.0 °F 87% 30.40 in 10.0 mi Calm Calm - N/A   Clear
2:53 AM 10.0 °F 3.6 °F 6.1 °F 84% 30.38 in 10.0 mi ENE 3.5 mph - N/A   Clear
3:53 AM 12.0 °F 2.7 °F 8.1 °F 84% 30.35 in 10.0 mi East 5.8 mph - N/A   Clear
4:53 AM 16.0 °F 5.3 °F 10.9 °F 81% 30.34 in 10.0 mi East 8.1 mph - N/A   Clear
5:53 AM 16.0 °F 6.3 °F 12.0 °F 84% 30.36 in 10.0 mi ENE 6.9 mph - N/A   Clear
6:53 AM 12.9 °F - 9.0 °F 84% 30.41 in 10.0 mi Calm Calm - N/A   Clear
7:53 AM 12.9 °F - 9.0 °F 84% 30.43 in 10.0 mi Calm Calm - N/A   Clear
8:53 AM 19.9 °F - 15.1 °F 81% 30.43 in 10.0 mi Calm Calm - N/A   Clear
9:53 AM - - - N/A% 30.28 in - Calm Calm - N/A   Clear
10:53 AM 30.9 °F 26.2 °F 19.0 °F 61% 30.40 in 10.0 mi North 4.6 mph - N/A   Clear
11:53 AM 34.0 °F 29.8 °F 21.0 °F 59% 30.38 in 10.0 mi ENE 4.6 mph - N/A   Clear
12:53 PM 39.9 °F 35.1 °F 23.0 °F 51% 30.32 in 10.0 mi North 6.9 mph - N/A   Clear
1:53 PM 39.0 °F 33.4 °F 24.1 °F 55% 30.31 in 10.0 mi North 8.1 mph - N/A   Clear
2:53 PM 41.0 °F 36.4 °F 24.1 °F 51% 30.29 in 10.0 mi North 6.9 mph - N/A   Clear
3:53 PM 42.1 °F 37.7 °F 24.1 °F 49% 30.27 in 10.0 mi North 6.9 mph - N/A   Clear
4:53 PM 39.9 °F 34.5 °F 26.1 °F 58% 30.26 in 10.0 mi NNW 8.1 mph - N/A   Clear
5:53 PM 35.1 °F 28.6 °F 25.0 °F 67% 30.28 in 10.0 mi North 8.1 mph - N/A   Clear
6:53 PM 32.0 °F 24.8 °F 24.1 °F 73% 30.31 in 10.0 mi North 8.1 mph - N/A   Clear
7:53 PM 28.0 °F 21.7 °F 21.9 °F 78% 30.33 in 10.0 mi NE 5.8 mph - N/A   Clear
8:53 PM 25.0 °F 20.7 °F 21.0 °F 85% 30.31 in 10.0 mi NW 3.5 mph - N/A   Clear
9:53 PM 21.0 °F - 19.0 °F 92% 30.22 in 10.0 mi Calm Calm - N/A   Clear
10:53 PM 19.9 °F - 17.1 °F 89% 30.29 in 10.0 mi Calm Calm - N/A   Clear
11:53 PM 21.0 °F 16.2 °F 18.0 °F 88% 30.28 in 10.0 mi East 3.5 mph - N/A   Clear